Showing default

OPS 9328 (IDSCS 15), 2655

Orbit data source: Space-Track

OPS 9328 (IDSCS 15), 2655 is a payload satellite owned by USAF SSD (US) in GEO that was launched on Wed, 18 Jan 1967 UTC via a TITAN IIIC launch vehicle from the Air Force Eastern Test Range (AFETR). Payload-class satellites include a variety of spacecraft equipped with specific instruments for various scientific and technological missions. These include communications satellites like Starlink; space stations such as the ISS; scientific satellites like the Hubble; Earth observation satellites from companies like Planet Labs, Umbra, and HawkEye 360; GPS; miniature CubeSats for education and research; and military/defense satellites.

Not visible in the next 10 days
Identifier
2655, 1967-003H
Orbit
GEO
Country
Flag of USUS
Related business
Manufacturer
Philco-Ford WDL
Mission
Non-operational spacecraft
Bus & Motor
IDCSP, Unknown motor
Mass
45 kg wet, 45 kg dry
Launch date (UTC)
1967-01-18 (60 years ago)
Launch vehicle
TITAN IIIC
Launch site
Air Force Eastern Test Range (AFETR)
Object type
Payload
Rocket body
Debris
Shape & HBR
ICO POLY, 0.5 m
Radar Cross Section
Medium (>0.1 m² and <1 m²)

Expand to show TLE details & history
Last TLE update: 2 days ago

TLE from 2 days ago
0 OPS 9328 (IDSCS 15)
1 02655U 67003H   26205.97058458 -.00000126  00000-0  00000-0 0  9995
2 02655   8.1319  47.4841 0073053  40.5400 297.4486  1.07230562139606
Epoch: 2026-07-24T23:17Z
TLE epoch observation values (Epoch: 2026-07-24T23:17:38.507Z)
Latitude
-3.15119°
Longitude
92.83482°
Altitude
33,808.57 km
Speed
3.155 km/s
True Right ascension
01h 39m 44s
True Declination
-3° 08' 52"
Sunlit
Object was in daylight at epoch
Visualization orbit readout
Latitude
Unknown
Longitude
Unknown
Altitude
Unknown
Speed
Unknown
Apparent Right ascension
Unknown
Apparent Declination
Unknown
Sunlit
N/A
Visualization observer readout
Local Sidereal Time
10:54:38
Azimuth
Unknown
Elevation
Unknown
Doppler factor
Unknown
Orbital elements
Apogee altitude
34,237.717 km
Perigee altitude
33,648.598 km
Semi-major axis
40,321.294 km
Eccentricity
0.00731
Inclination
8.1319°
RAAN
47.4841°
Arg. of periapsis
40.54°
True anomaly
296.7026°
Mean anomaly
297.4486°
Eccentric anomaly
297.07591°
Mean motion
0.26807 °/min
Orbital period
1,342.95 mins
BSTAR
0
Loading maneuver chart data...
Computing Atmospheric mass density...
Loading historical data...
Loading historical data...
Loading historical data...
Loading historical data...
Loading historical data...
Loading historical data...
Loading historical data...

Documentation

Showing up to 5 results
|